Regional Weather Roundup
Issued by NWS

Home | Current Version | Previous Version | Text Only | Print | Product List | Glossary On
Versions: 1 2 3 4 5 6 7 8 9 10 11 12 13 14 15 16 17 18 19 20 21 22 23 24 25 26 27 28 29 30 31 32 33 34 35 36 37 38 39 40 41 42 43 44 45 46 47 48 49 50
000
ASUS43 KTOP 280408
RWRKS

WEATHER ROUNDUP FOR KANSAS
NATIONAL WEATHER SERVICE GOODLAND KS
1100 PM CDT WED MAY 27 2015

NOTE:  "FAIR" INDICATES FEW OR NO CLOUDS BELOW 12,000 FEET WITH NO
SIGNIFICANT WEATHER AND/OR OBSTRUCTIONS TO VISIBILITY.

KSZ001>006-013>018-027>032-041>047-280500-
NORTHWEST KANSAS

CITY           SKY/WX    TMP DP  RH WIND       PRES   REMARKS
GOODLAND       LGT RAIN  59  56  89 E15       30.09R
HAYS           CLOUDY    64  54  68 E6        30.05R
HILL CITY      CLOUDY    65  62  90 N3        30.09R
RUSSELL        CLOUDY    69  56  62 SE20      30.04R
$$

KSZ061>065-074>080-084>089-280500-
SOUTHWEST KANSAS

CITY           SKY/WX    TMP DP  RH WIND       PRES   REMARKS
DODGE CITY     CLOUDY    61  56  83 E10       30.06F
ELKHART          N/A     60  52  75 SE15        N/A
GARDEN CITY    CLOUDY    59  58  96 SE21      30.04R
GREAT BEND     CLOUDY    61  55  82 NE17G25   30.10R THUNDER
LIBERAL        CLOUDY    63  54  72 E15       30.07R
PRATT          CLOUDY    70  64  83 SW6       30.09R
$$

KSZ066>073-081>083-090>101-280500-
SOUTHEAST KANSAS

CITY           SKY/WX    TMP DP  RH WIND       PRES   REMARKS
CHANUTE        CLOUDY    73  65  75 E7        30.07R
COFFEYVILLE    CLOUDY    71  68  90 SE5       30.05S
HUTCHINSON     CLOUDY    73  65  75 SE3       30.06R
MEDICINE LODGE   N/A     72  67  84 SE7       30.05R
NEWTON         CLOUDY    70  61  73 SE7       30.08S
PARSONS        CLOUDY    71  67  87 CALM      30.07S
WICHITA INTL   CLOUDY    74  67  78 SE6       30.04S
WICHITA JABRA  CLOUDY    71  65  81 SE7       30.05S
WINFIELD       CLOUDY    73  68  84 SE6       30.05F
$$

KSZ007>012-019>026-033>040-048>060-102>105-280500-
NORTHEAST KANSAS

CITY           SKY/WX    TMP DP  RH WIND       PRES   REMARKS
CONCORDIA      CLOUDY    67  60  78 SE9       30.06S
EMPORIA        CLOUDY    69  62  78 E8        30.07S
LAWRENCE       CLOUDY    64  59  83 E5        30.09R
MANHATTAN      CLOUDY    68  63  84 CALM      30.06F
MARYSVILLE     CLOUDY    63  55  77 SE5       30.08S
OLATHE IND     CLOUDY    69  56  62 E5        30.10S
OLATHE EXE     CLOUDY    69  56  62 SE5       30.10R
SALINA         CLOUDY    72  63  73 SE10      30.06R
TOPEKA BILLARD CLOUDY    67  61  81 NE3       30.08S
TOPEKA FORBES  CLOUDY    68  58  70 SE5       30.08S
$$



USA.gov is the U.S. government's official web portal to all federal, state and local government web resources and services.